TimeCDT,TemperatureF,Dew PointF,Humidity,Sea Level PressureIn,VisibilityMPH,Wind Direction,Wind SpeedMPH,Gust SpeedMPH,PrecipitationIn,Events,Conditions,WindDirDegrees,DateUTC
12:58 AM,51.3,36.1,56,30.36,10.0,SSE,5.8,-,N/A,,Clear,160,2013-03-14 05:58:00
1:58 AM,52.3,40.6,64,30.35,10.0,South,4.6,-,N/A,,Clear,180,2013-03-14 06:58:00
2:58 AM,47.3,41.0,79,30.33,10.0,NNE,2.3,-,N/A,,Clear,30,2013-03-14 07:58:00
3:58 AM,46.9,41.4,81,30.32,10.0,NNW,2.3,-,N/A,,Clear,340,2013-03-14 08:58:00
4:58 AM,45.3,41.0,85,30.32,10.0,NW,3.5,-,N/A,,Clear,320,2013-03-14 09:58:00
5:58 AM,43.7,40.5,88,30.33,10.0,NNW,3.5,-,N/A,,Clear,330,2013-03-14 10:58:00
6:58 AM,42.1,39.6,91,30.35,10.0,NNW,4.6,-,N/A,,Clear,340,2013-03-14 11:58:00
7:33 AM,42.8,41.0,93,30.35,10.0,NNW,5.8,-,N/A,,Mostly Cloudy,330,2013-03-14 12:33:00
7:58 AM,45.3,43.7,94,30.36,10.0,NNW,4.6,-,N/A,,Overcast,340,2013-03-14 12:58:00
8:54 AM,50.0,46.4,87,30.38,10.0,NNW,3.5,-,N/A,,Overcast,330,2013-03-14 13:54:00
8:58 AM,50.7,47.1,87,30.38,10.0,NNW,2.3,-,N/A,,Overcast,340,2013-03-14 13:58:00
9:19 AM,53.6,50.0,88,30.38,10.0,Variable,1.2,-,N/A,,Mostly Cloudy,0,2013-03-14 14:19:00
9:24 AM,55.4,51.8,88,30.38,10.0,SW,4.6,-,N/A,,Mostly Cloudy,220,2013-03-14 14:24:00
9:47 AM,57.2,53.6,88,30.39,10.0,SSW,5.8,-,N/A,,Mostly Cloudy,200,2013-03-14 14:47:00
9:54 AM,59.0,53.6,82,30.39,10.0,SW,6.9,-,N/A,,Mostly Cloudy,220,2013-03-14 14:54:00
9:58 AM,58.8,54.0,84,30.39,10.0,SSW,5.8,-,N/A,,Scattered Clouds,200,2013-03-14 14:58:00
10:54 AM,64.4,55.4,73,30.39,10.0,SSW,11.5,-,N/A,,Mostly Cloudy,210,2013-03-14 15:54:00
10:58 AM,64.4,55.4,73,30.39,10.0,SSW,12.7,-,N/A,,Mostly Cloudy,200,2013-03-14 15:58:00
11:12 AM,64.4,55.4,73,30.40,10.0,South,10.4,-,N/A,,Mostly Cloudy,180,2013-03-14 16:12:00
11:26 AM,66.2,55.4,68,30.39,10.0,South,12.7,-,N/A,,Scattered Clouds,190,2013-03-14 16:26:00
11:58 AM,68.4,52.7,57,30.38,10.0,SSW,11.5,-,N/A,,Partly Cloudy,200,2013-03-14 16:58:00
12:58 PM,72.0,50.7,47,30.35,10.0,South,9.2,-,N/A,,Clear,190,2013-03-14 17:58:00
1:46 PM,73.4,50.0,44,30.33,10.0,SSW,11.5,-,N/A,,Clear,200,2013-03-14 18:46:00
1:58 PM,74.3,47.5,39,30.32,10.0,SSW,13.8,18.4,N/A,,Clear,200,2013-03-14 18:58:00
2:58 PM,76.3,41.9,29,30.28,10.0,SW,12.7,-,N/A,,Clear,220,2013-03-14 19:58:00
3:58 PM,76.8,41.7,28,30.25,10.0,South,12.7,21.9,N/A,,Clear,180,2013-03-14 20:58:00
4:58 PM,78.1,43.0,29,30.23,10.0,SSW,13.8,-,N/A,,Clear,210,2013-03-14 21:58:00
5:58 PM,77.4,43.2,30,30.22,10.0,SE,11.5,-,N/A,,Clear,140,2013-03-14 22:58:00
6:58 PM,75.9,42.3,30,30.23,10.0,South,10.4,-,N/A,,Clear,180,2013-03-14 23:58:00
7:58 PM,67.5,42.3,40,30.23,10.0,SSE,8.1,-,N/A,,Clear,160,2013-03-15 00:58:00
8:58 PM,67.3,49.3,52,30.24,10.0,SSE,11.5,-,N/A,,Clear,150,2013-03-15 01:58:00
9:58 PM,64.6,51.4,62,30.25,10.0,SSE,16.1,-,N/A,,Clear,160,2013-03-15 02:58:00
10:58 PM,62.2,52.9,71,30.26,10.0,SSE,10.4,-,N/A,,Clear,160,2013-03-15 03:58:00
11:58 PM,59.9,54.7,83,30.25,10.0,South,10.4,-,N/A,,Clear,170,2013-03-15 04:58:00